Time,TemperatureF,DewpointF,PressureIn,WindDirection,WindDirectionDegrees,WindSpeedMPH,WindSpeedGustMPH,Humidity,HourlyPrecipIn,Conditions,Clouds,dailyrainin,SoftwareType,DateUTC
2013-09-06 00:00:00,44.2,43.1,30.19,NNW,342,0.0,0.0,96,0.00,,,0.00,Wunderground v.1.15,2013-09-06 04:00:00,
2013-09-06 00:05:00,44.2,43.1,30.19,NNW,342,0.0,0.0,96,0.00,,,0.00,Wunderground v.1.15,2013-09-06 04:05:00,
2013-09-06 00:10:00,44.1,43.0,30.19,NNW,342,0.0,0.0,96,0.00,,,0.00,Wunderground v.1.15,2013-09-06 04:10:00,
2013-09-06 00:15:00,43.9,42.8,30.19,NNW,342,0.0,0.0,96,0.00,,,0.00,Wunderground v.1.15,2013-09-06 04:15:00,
2013-09-06 00:20:00,43.8,42.5,30.19,NNW,342,0.0,0.0,95,0.00,,,0.00,Wunderground v.1.15,2013-09-06 04:20:00,
2013-09-06 00:25:00,43.6,42.5,30.19,NNW,342,0.0,0.0,96,0.00,,,0.00,Wunderground v.1.15,2013-09-06 04:25:00,
2013-09-06 00:30:00,43.5,42.2,30.19,NNW,342,0.0,0.0,95,0.00,,,0.00,Wunderground v.1.15,2013-09-06 04:30:00,
2013-09-06 00:35:00,43.2,41.9,30.20,NNW,342,0.0,0.0,95,0.00,,,0.00,Wunderground v.1.15,2013-09-06 04:35:00,
2013-09-06 00:40:00,43.2,42.1,30.20,NNW,342,0.0,0.0,96,0.00,,,0.00,Wunderground v.1.15,2013-09-06 04:40:00,
2013-09-06 00:45:00,43.1,42.0,30.20,NNW,342,0.0,0.0,96,0.00,,,0.00,Wunderground v.1.15,2013-09-06 04:45:00,
2013-09-06 00:50:00,43.1,42.0,30.20,NNW,342,0.0,0.0,96,0.00,,,0.00,Wunderground v.1.15,2013-09-06 04:50:00,
2013-09-06 01:40:00,41.9,40.8,30.20,NNW,342,0.0,0.0,96,0.00,,,0.00,Wunderground v.1.15,2013-09-06 05:40:00,
2013-09-06 01:45:00,41.8,40.7,30.21,NNW,342,0.0,0.0,96,0.00,,,0.00,Wunderground v.1.15,2013-09-06 05:45:00,
2013-09-06 01:50:00,41.8,40.7,30.21,NNW,342,0.0,0.0,96,0.00,,,0.00,Wunderground v.1.15,2013-09-06 05:50:00,
2013-09-06 01:55:00,41.6,40.5,30.21,NNW,342,0.0,0.0,96,0.00,,,0.00,Wunderground v.1.15,2013-09-06 05:55:00,
2013-09-06 02:00:00,41.5,40.4,30.21,NNW,342,0.0,0.0,96,0.00,,,0.00,Wunderground v.1.15,2013-09-06 06:00:00,
2013-09-06 02:10:00,41.3,40.2,30.21,NNW,342,0.0,0.0,96,0.00,,,0.00,Wunderground v.1.15,2013-09-06 06:10:00,
2013-09-06 02:15:00,41.2,40.1,30.21,NNW,342,0.0,0.0,96,0.00,,,0.00,Wunderground v.1.15,2013-09-06 06:15:00,
2013-09-06 02:20:00,41.1,40.0,30.22,NNW,342,0.0,0.0,96,0.00,,,0.00,Wunderground v.1.15,2013-09-06 06:20:00,
2013-09-06 02:25:00,40.9,39.8,30.21,NNW,342,0.0,0.0,96,0.00,,,0.00,Wunderground v.1.15,2013-09-06 06:25:00,
2013-09-06 02:35:00,40.6,39.5,30.22,NNW,342,0.0,0.0,96,0.00,,,0.00,Wunderground v.1.15,2013-09-06 06:35:00,
2013-09-06 02:45:00,40.3,39.3,30.22,NNW,342,0.0,0.0,96,0.00,,,0.00,Wunderground v.1.15,2013-09-06 06:45:00,
2013-09-06 02:50:00,40.2,39.2,30.22,NNW,342,0.0,0.0,96,0.00,,,0.00,Wunderground v.1.15,2013-09-06 06:50:00,
2013-09-06 02:55:00,40.1,39.1,30.22,NNW,342,0.0,0.0,96,0.00,,,0.00,Wunderground v.1.15,2013-09-06 06:55:00,
2013-09-06 03:00:00,40.1,39.1,30.22,NNW,342,0.0,0.0,96,0.00,,,0.00,Wunderground v.1.15,2013-09-06 07:00:00,
2013-09-06 03:05:00,40.1,39.1,30.22,NNW,342,0.0,0.0,96,0.00,,,0.00,Wunderground v.1.15,2013-09-06 07:05:00,
2013-09-06 03:10:00,39.9,39.1,30.22,NNW,342,0.0,0.0,97,0.00,,,0.00,Wunderground v.1.15,2013-09-06 07:10:00,
2013-09-06 03:20:00,40.1,39.3,30.23,NNW,342,0.0,0.0,97,0.00,,,0.00,Wunderground v.1.15,2013-09-06 07:20:00,
2013-09-06 03:25:00,40.1,39.3,30.23,NNW,342,0.0,0.0,97,0.00,,,0.00,Wunderground v.1.15,2013-09-06 07:25:00,
2013-09-06 03:30:00,39.9,39.1,30.23,NNW,342,0.0,0.0,97,0.00,,,0.00,Wunderground v.1.15,2013-09-06 07:30:00,
2013-09-06 03:35:00,39.8,39.0,30.23,NNW,342,0.0,0.0,97,0.00,,,0.00,Wunderground v.1.15,2013-09-06 07:35:00,
2013-09-06 03:40:00,39.6,38.8,30.23,NNW,342,0.0,0.0,97,0.00,,,0.00,Wunderground v.1.15,2013-09-06 07:40:00,
2013-09-06 03:45:00,39.5,38.7,30.23,NNW,342,0.0,0.0,97,0.00,,,0.00,Wunderground v.1.15,2013-09-06 07:45:00,
2013-09-06 03:50:00,39.5,38.7,30.24,NNW,342,0.0,0.0,97,0.00,,,0.00,Wunderground v.1.15,2013-09-06 07:50:00,
2013-09-06 04:00:00,39.2,38.4,30.24,NNW,342,0.0,0.0,97,0.00,,,0.00,Wunderground v.1.15,2013-09-06 08:00:00,
2013-09-06 04:05:00,39.2,38.4,30.24,NNW,342,0.0,0.0,97,0.00,,,0.00,Wunderground v.1.15,2013-09-06 08:05:00,
2013-09-06 04:10:00,39.2,38.4,30.24,NNW,342,0.0,0.0,97,0.00,,,0.00,Wunderground v.1.15,2013-09-06 08:10:00,
2013-09-06 04:15:00,39.2,38.4,30.24,NNW,342,0.0,0.0,97,0.00,,,0.00,Wunderground v.1.15,2013-09-06 08:15:00,
2013-09-06 04:20:00,39.1,38.3,30.24,NNW,342,0.0,0.0,97,0.00,,,0.00,Wunderground v.1.15,2013-09-06 08:20:00,
2013-09-06 04:25:00,39.1,38.6,30.25,NNW,342,0.0,0.0,98,0.00,,,0.00,Wunderground v.1.15,2013-09-06 08:25:00,
2013-09-06 04:30:00,38.9,38.4,30.25,NNW,342,0.0,0.0,98,0.00,,,0.00,Wunderground v.1.15,2013-09-06 08:30:00,
2013-09-06 04:35:00,38.9,38.4,30.25,NNW,342,0.0,0.0,98,0.00,,,0.00,Wunderground v.1.15,2013-09-06 08:35:00,
2013-09-06 04:40:00,39.1,38.6,30.25,NNW,342,0.0,0.0,98,0.00,,,0.00,Wunderground v.1.15,2013-09-06 08:40:00,
2013-09-06 04:50:00,39.2,38.7,30.25,NNW,342,0.0,0.0,98,0.00,,,0.00,Wunderground v.1.15,2013-09-06 08:50:00,
2013-09-06 04:55:00,39.3,39.0,30.25,NNW,342,0.0,0.0,99,0.00,,,0.00,Wunderground v.1.15,2013-09-06 08:55:00,
2013-09-06 05:00:00,39.5,39.2,30.26,NNW,342,0.0,0.0,99,0.00,,,0.00,Wunderground v.1.15,2013-09-06 09:00:00,
2013-09-06 05:10:00,39.6,39.3,30.25,NNW,342,0.0,0.0,99,0.00,,,0.00,Wunderground v.1.15,2013-09-06 09:10:00,
2013-09-06 05:15:00,39.6,39.3,30.25,NNW,342,0.0,0.0,99,0.00,,,0.00,Wunderground v.1.15,2013-09-06 09:15:00,
2013-09-06 05:20:00,39.8,39.5,30.25,NNW,342,0.0,0.0,99,0.00,,,0.00,Wunderground v.1.15,2013-09-06 09:20:00,
2013-09-06 05:25:00,39.8,39.5,30.26,NNW,342,0.0,0.0,99,0.00,,,0.00,Wunderground v.1.15,2013-09-06 09:25:00,
2013-09-06 05:30:00,39.8,39.5,30.26,NNW,342,0.0,0.0,99,0.00,,,0.00,Wunderground v.1.15,2013-09-06 09:30:00,
2013-09-06 05:35:00,39.8,39.5,30.26,NNW,342,0.0,0.0,99,0.00,,,0.00,Wunderground v.1.15,2013-09-06 09:35:00,
2013-09-06 05:40:00,39.6,39.6,30.26,NNW,342,0.0,0.0,100,0.00,,,0.00,Wunderground v.1.15,2013-09-06 09:40:00,
2013-09-06 05:50:00,39.6,39.6,30.26,NNW,342,0.0,0.0,100,0.00,,,0.00,Wunderground v.1.15,2013-09-06 09:50:00,
2013-09-06 05:55:00,39.6,39.6,30.26,NNW,342,0.0,0.0,100,0.00,,,0.00,Wunderground v.1.15,2013-09-06 09:55:00,
2013-09-06 06:00:00,39.6,39.6,30.26,NNW,342,0.0,0.0,100,0.00,,,0.00,Wunderground v.1.15,2013-09-06 10:00:00,
2013-09-06 06:05:00,39.6,39.6,30.26,NNW,342,0.0,0.0,100,0.00,,,0.00,Wunderground v.1.15,2013-09-06 10:05:00,
2013-09-06 06:10:00,39.8,39.8,30.27,NNW,342,0.0,0.0,100,0.00,,,0.00,Wunderground v.1.15,2013-09-06 10:10:00,
2013-09-06 06:15:00,39.9,39.9,30.27,NNW,342,0.0,0.0,100,0.00,,,0.00,Wunderground v.1.15,2013-09-06 10:15:00,
2013-09-06 06:20:00,40.1,40.1,30.27,NNW,342,0.0,0.0,100,0.00,,,0.00,Wunderground v.1.15,2013-09-06 10:20:00,
2013-09-06 06:25:00,40.1,40.1,30.27,NNW,342,0.0,0.0,100,0.00,,,0.00,Wunderground v.1.15,2013-09-06 10:25:00,
2013-09-06 06:30:00,40.2,40.2,30.27,NNW,342,0.0,0.0,100,0.00,,,0.00,Wunderground v.1.15,2013-09-06 10:30:00,
2013-09-06 06:35:00,40.3,40.3,30.27,NNW,342,0.0,0.0,100,0.00,,,0.00,Wunderground v.1.15,2013-09-06 10:35:00,
2013-09-06 06:40:00,40.5,40.5,30.27,NNW,342,0.0,0.0,100,0.00,,,0.00,Wunderground v.1.15,2013-09-06 10:40:00,
2013-09-06 06:45:00,40.3,40.3,30.28,NNW,342,0.0,0.0,100,0.00,,,0.00,Wunderground v.1.15,2013-09-06 10:45:00,
2013-09-06 06:50:00,40.3,40.3,30.28,NNW,342,0.0,1.0,100,0.00,,,0.00,Wunderground v.1.15,2013-09-06 10:50:00,
2013-09-06 07:00:00,40.5,40.5,30.28,NNW,342,0.0,0.0,100,0.00,,,0.00,Wunderground v.1.15,2013-09-06 11:00:00,
2013-09-06 07:05:00,40.5,40.5,30.28,NNW,342,0.0,2.0,100,0.00,,,0.00,Wunderground v.1.15,2013-09-06 11:05:00,
2013-09-06 07:10:00,40.6,40.6,30.28,NNW,342,0.0,2.0,100,0.00,,,0.00,Wunderground v.1.15,2013-09-06 11:10:00,
2013-09-06 07:15:00,40.8,40.8,30.28,NNW,342,0.0,2.0,100,0.00,,,0.00,Wunderground v.1.15,2013-09-06 11:15:00,
2013-09-06 07:20:00,40.9,40.9,30.27,NNW,342,0.0,2.0,100,0.00,,,0.00,Wunderground v.1.15,2013-09-06 11:20:00,
2013-09-06 07:25:00,41.1,41.1,30.28,NNW,342,0.0,2.0,100,0.00,,,0.00,Wunderground v.1.15,2013-09-06 11:25:00,
2013-09-06 07:35:00,41.3,41.3,30.28,NNW,342,0.0,2.0,100,0.00,,,0.00,Wunderground v.1.15,2013-09-06 11:35:00,
2013-09-06 07:45:00,41.2,41.2,30.28,NNW,342,0.0,2.0,100,0.00,,,0.00,Wunderground v.1.15,2013-09-06 11:45:00,
2013-09-06 07:50:00,41.2,41.2,30.29,NNW,342,0.0,2.0,100,0.00,,,0.00,Wunderground v.1.15,2013-09-06 11:50:00,
2013-09-06 07:55:00,41.5,41.5,30.28,NNW,342,0.0,2.0,100,0.00,,,0.00,Wunderground v.1.15,2013-09-06 11:55:00,
2013-09-06 08:00:00,41.6,41.6,30.29,NNW,342,0.0,2.0,100,0.00,,,0.00,Wunderground v.1.15,2013-09-06 12:00:00,
2013-09-06 08:05:00,41.6,41.6,30.29,NNW,342,0.0,2.0,100,0.00,,,0.00,Wunderground v.1.15,2013-09-06 12:05:00,
2013-09-06 08:10:00,41.8,41.8,30.29,NNW,342,0.0,1.0,100,0.00,,,0.00,Wunderground v.1.15,2013-09-06 12:10:00,
2013-09-06 08:15:00,42.2,42.2,30.29,NNW,342,0.0,1.0,100,0.00,,,0.00,Wunderground v.1.15,2013-09-06 12:15:00,
2013-09-06 08:20:00,42.5,42.5,30.29,NNW,342,0.0,1.0,100,0.00,,,0.00,Wunderground v.1.15,2013-09-06 12:20:00,
2013-09-06 08:25:00,42.6,42.6,30.29,NNW,342,0.0,1.0,100,0.00,,,0.00,Wunderground v.1.15,2013-09-06 12:25:00,
2013-09-06 08:30:00,42.8,42.8,30.29,NNW,342,0.0,1.0,100,0.00,,,0.00,Wunderground v.1.15,2013-09-06 12:30:00,
2013-09-06 08:35:00,43.2,43.2,30.29,NNW,342,0.0,1.0,100,0.00,,,0.00,Wunderground v.1.15,2013-09-06 12:35:00,
2013-09-06 08:45:00,43.6,43.6,30.29,NNW,342,0.0,1.0,100,0.00,,,0.00,Wunderground v.1.15,2013-09-06 12:45:00,
2013-09-06 08:50:00,43.8,43.8,30.29,NNW,342,0.0,1.0,100,0.00,,,0.00,Wunderground v.1.15,2013-09-06 12:50:00,
2013-09-06 08:55:00,43.9,43.9,30.30,NNW,342,0.0,1.0,100,0.00,,,0.00,Wunderground v.1.15,2013-09-06 12:55:00,
2013-09-06 09:00:00,43.9,43.9,30.30,NNW,342,0.0,1.0,100,0.00,,,0.00,Wunderground v.1.15,2013-09-06 13:00:00,
2013-09-06 09:10:00,44.2,44.2,30.30,NNW,342,0.0,1.0,100,0.00,,,0.00,Wunderground v.1.15,2013-09-06 13:10:00,
2013-09-06 09:15:00,44.5,44.5,30.30,NNW,342,0.0,1.0,100,0.00,,,0.00,Wunderground v.1.15,2013-09-06 13:15:00,
2013-09-06 09:20:00,45.1,44.6,30.30,NNW,342,0.0,1.0,98,0.00,,,0.00,Wunderground v.1.15,2013-09-06 13:20:00,
2013-09-06 09:25:00,45.7,44.6,30.29,NNW,342,0.0,1.0,96,0.00,,,0.00,Wunderground v.1.15,2013-09-06 13:25:00,
2013-09-06 09:30:00,46.4,45.0,30.29,NNW,342,0.0,1.0,95,0.00,,,0.00,Wunderground v.1.15,2013-09-06 13:30:00,
2013-09-06 09:35:00,46.8,44.6,30.29,NNW,342,0.0,1.0,92,0.00,,,0.00,Wunderground v.1.15,2013-09-06 13:35:00,
2013-09-06 09:45:00,48.5,46.0,30.29,NNW,342,0.0,1.0,91,0.00,,,0.00,Wunderground v.1.15,2013-09-06 13:45:00,
2013-09-06 09:50:00,49.6,45.6,30.29,NNW,342,0.0,2.0,86,0.00,,,0.00,Wunderground v.1.15,2013-09-06 13:50:00,
2013-09-06 09:55:00,51.0,47.0,30.29,ESE,102,1.0,3.0,86,0.00,,,0.00,Wunderground v.1.15,2013-09-06 13:55:00,
2013-09-06 10:00:00,52.0,46.0,30.29,ESE,102,1.0,1.0,80,0.00,,,0.00,Wunderground v.1.15,2013-09-06 14:00:00,
2013-09-06 10:05:00,53.2,46.5,30.29,East,100,1.0,5.0,78,0.00,,,0.00,Wunderground v.1.15,2013-09-06 14:05:00,
2013-09-06 10:10:00,54.1,48.1,30.29,ENE,74,0.0,5.0,80,0.00,,,0.00,Wunderground v.1.15,2013-09-06 14:10:00,
2013-09-06 10:15:00,54.5,46.0,30.29,NNW,344,1.0,5.0,73,0.00,,,0.00,Wunderground v.1.15,2013-09-06 14:15:00,
2013-09-06 10:20:00,55.6,46.0,30.28,NNW,344,1.0,1.0,70,0.00,,,0.00,Wunderground v.1.15,2013-09-06 14:20:00,
2013-09-06 10:30:00,57.0,45.3,30.28,NNW,346,0.0,5.0,65,0.00,,,0.00,Wunderground v.1.15,2013-09-06 14:30:00,
2013-09-06 10:35:00,58.0,43.3,30.28,NNE,14,1.0,5.0,58,0.00,,,0.00,Wunderground v.1.15,2013-09-06 14:35:00,
2013-09-06 10:40:00,58.6,41.5,30.28,NNW,346,2.0,2.0,53,0.00,,,0.00,Wunderground v.1.15,2013-09-06 14:40:00,
2013-09-06 10:45:00,59.3,42.2,30.28,NNE,30,1.0,5.0,53,0.00,,,0.00,Wunderground v.1.15,2013-09-06 14:45:00,
2013-09-06 10:50:00,59.9,45.1,30.27,NNW,332,1.0,1.0,58,0.00,,,0.00,Wunderground v.1.15,2013-09-06 14:50:00,
2013-09-06 10:55:00,60.4,41.7,30.27,NW,320,1.0,5.0,50,0.00,,,0.00,Wunderground v.1.15,2013-09-06 14:55:00,
2013-09-06 11:00:00,60.5,42.3,30.28,North,5,1.0,4.0,51,0.00,,,0.00,Wunderground v.1.15,2013-09-06 15:00:00,
2013-09-06 11:10:00,60.5,36.0,30.27,North,5,3.0,6.0,40,0.00,,,0.00,Wunderground v.1.15,2013-09-06 15:10:00,
2013-09-06 11:15:00,60.7,39.8,30.27,North,355,2.0,6.0,46,0.00,,,0.00,Wunderground v.1.15,2013-09-06 15:15:00,
2013-09-06 11:25:00,60.7,38.1,30.27,WNW,296,1.0,4.0,43,0.00,,,0.00,Wunderground v.1.15,2013-09-06 15:25:00,
2013-09-06 11:30:00,60.5,39.6,30.27,North,355,1.0,1.0,46,0.00,,,0.00,Wunderground v.1.15,2013-09-06 15:30:00,
2013-09-06 11:35:00,60.2,37.6,30.26,NNW,338,1.0,4.0,43,0.00,,,0.00,Wunderground v.1.15,2013-09-06 15:35:00,
2013-09-06 11:40:00,60.4,40.1,30.26,NNE,18,1.0,4.0,47,0.00,,,0.00,Wunderground v.1.15,2013-09-06 15:40:00,
2013-09-06 11:50:00,60.4,41.1,30.26,SSW,198,0.0,4.0,49,0.00,,,0.00,Wunderground v.1.15,2013-09-06 15:50:00,
2013-09-06 11:55:00,60.2,38.2,30.26,North,5,1.0,4.0,44,0.00,,,0.00,Wunderground v.1.15,2013-09-06 15:55:00,
2013-09-06 12:00:00,60.4,39.5,30.26,North,349,1.0,1.0,46,0.00,,,0.00,Wunderground v.1.15,2013-09-06 16:00:00,
2013-09-06 12:10:00,60.7,45.8,30.25,NW,322,2.0,2.0,58,0.00,,,0.00,Wunderground v.1.15,2013-09-06 16:10:00,
2013-09-06 12:15:00,60.5,41.8,30.25,NW,322,1.0,5.0,50,0.00,,,0.00,Wunderground v.1.15,2013-09-06 16:15:00,
2013-09-06 12:20:00,60.2,40.4,30.25,NW,322,0.0,5.0,48,0.00,,,0.00,Wunderground v.1.15,2013-09-06 16:20:00,
2013-09-06 12:30:00,60.4,38.9,30.24,SSW,211,1.0,1.0,45,0.00,,,0.00,Wunderground v.1.15,2013-09-06 16:30:00,
2013-09-06 12:35:00,60.5,40.7,30.24,NNE,24,1.0,5.0,48,0.00,,,0.00,Wunderground v.1.15,2013-09-06 16:35:00,
2013-09-06 12:45:00,61.2,41.9,30.24,NNW,348,1.0,5.0,49,0.00,,,0.00,Wunderground v.1.15,2013-09-06 16:45:00,
2013-09-06 12:50:00,61.3,45.5,30.24,SE,136,1.0,5.0,56,0.00,,,0.00,Wunderground v.1.15,2013-09-06 16:50:00,
2013-09-06 12:55:00,61.5,40.5,30.24,NNW,348,2.0,5.0,46,0.00,,,0.00,Wunderground v.1.15,2013-09-06 16:55:00,
2013-09-06 13:00:00,62.1,39.9,30.24,NNE,20,2.0,5.0,44,0.00,,,0.00,Wunderground v.1.15,2013-09-06 17:00:00,
2013-09-06 13:10:00,63.4,41.7,30.23,NNW,331,1.0,5.0,45,0.00,,,0.00,Wunderground v.1.15,2013-09-06 17:10:00,
2013-09-06 13:15:00,64.2,38.7,30.23,NNW,335,1.0,5.0,39,0.00,,,0.00,Wunderground v.1.15,2013-09-06 17:15:00,
2013-09-06 13:25:00,63.9,41.0,30.23,NNW,342,1.0,5.0,43,0.00,,,0.00,Wunderground v.1.15,2013-09-06 17:25:00,
2013-09-06 13:30:00,64.0,39.8,30.22,NE,40,0.0,5.0,41,0.00,,,0.00,Wunderground v.1.15,2013-09-06 17:30:00,
2013-09-06 13:35:00,64.2,40.0,30.22,North,360,1.0,5.0,41,0.00,,,0.00,Wunderground v.1.15,2013-09-06 17:35:00,
2013-09-06 13:40:00,64.3,43.6,30.22,NNW,340,1.0,5.0,47,0.00,,,0.00,Wunderground v.1.15,2013-09-06 17:40:00,
2013-09-06 13:50:00,64.0,41.0,30.22,SE,132,1.0,1.0,43,0.00,,,0.00,Wunderground v.1.15,2013-09-06 17:50:00,
2013-09-06 13:55:00,63.9,49.3,30.21,South,182,1.0,5.0,59,0.00,,,0.00,Wunderground v.1.15,2013-09-06 17:55:00,
2013-09-06 14:00:00,63.5,38.7,30.21,SW,223,1.0,1.0,40,0.00,,,0.00,Wunderground v.1.15,2013-09-06 18:00:00,
2013-09-06 14:10:00,63.4,39.3,30.21,SSW,213,0.0,4.0,41,0.00,,,0.00,Wunderground v.1.15,2013-09-06 18:10:00,
2013-09-06 14:15:00,63.4,40.5,30.20,SSE,153,0.0,4.0,43,0.00,,,0.00,Wunderground v.1.15,2013-09-06 18:15:00,
2013-09-06 14:25:00,63.4,42.8,30.20,NNE,31,1.0,4.0,47,0.00,,,0.00,Wunderground v.1.15,2013-09-06 18:25:00,
2013-09-06 14:30:00,63.2,42.1,30.20,ESE,103,1.0,4.0,46,0.00,,,0.00,Wunderground v.1.15,2013-09-06 18:30:00,
2013-09-06 14:35:00,63.5,42.9,30.19,SSE,151,1.0,4.0,47,0.00,,,0.00,Wunderground v.1.15,2013-09-06 18:35:00,
2013-09-06 14:45:00,63.9,42.1,30.19,NNE,26,0.0,4.0,45,0.00,,,0.00,Wunderground v.1.15,2013-09-06 18:45:00,
2013-09-06 14:50:00,63.9,43.3,30.19,NNE,19,0.0,4.0,47,0.00,,,0.00,Wunderground v.1.15,2013-09-06 18:50:00,
2013-09-06 14:55:00,63.9,44.9,30.18,North,5,1.0,4.0,50,0.00,,,0.00,Wunderground v.1.15,2013-09-06 18:55:00,
2013-09-06 15:00:00,63.9,45.9,30.18,SE,134,1.0,1.0,52,0.00,,,0.00,Wunderground v.1.15,2013-09-06 19:00:00,
2013-09-06 15:10:00,63.5,48.9,30.18,SSW,210,1.0,3.0,59,0.00,,,0.00,Wunderground v.1.15,2013-09-06 19:10:00,
2013-09-06 15:15:00,63.7,45.2,30.18,SSW,210,1.0,3.0,51,0.00,,,0.00,Wunderground v.1.15,2013-09-06 19:15:00,
2013-09-06 15:25:00,63.7,50.0,30.17,SE,129,0.0,3.0,61,0.00,,,0.00,Wunderground v.1.15,2013-09-06 19:25:00,
2013-09-06 15:30:00,63.5,47.0,30.17,ESE,113,0.0,3.0,55,0.00,,,0.00,Wunderground v.1.15,2013-09-06 19:30:00,
2013-09-06 15:35:00,63.4,47.4,30.17,South,177,1.0,3.0,56,0.00,,,0.00,Wunderground v.1.15,2013-09-06 19:35:00,
2013-09-06 15:40:00,63.4,48.8,30.16,ESE,123,1.0,1.0,59,0.00,,,0.00,Wunderground v.1.15,2013-09-06 19:40:00,
2013-09-06 15:50:00,63.2,53.3,30.16,ESE,120,0.0,3.0,70,0.00,,,0.00,Wunderground v.1.15,2013-09-06 19:50:00,
2013-09-06 15:55:00,63.1,47.1,30.16,East,98,1.0,3.0,56,0.00,,,0.00,Wunderground v.1.15,2013-09-06 19:55:00,
2013-09-06 16:00:00,63.1,46.2,30.16,South,189,1.0,1.0,54,0.00,,,0.00,Wunderground v.1.15,2013-09-06 20:00:00,
2013-09-06 16:10:00,63.1,49.0,30.15,ENE,74,0.0,5.0,60,0.00,,,0.00,Wunderground v.1.15,2013-09-06 20:10:00,
2013-09-06 16:15:00,63.2,51.6,30.15,SSW,204,0.0,5.0,66,0.00,,,0.00,Wunderground v.1.15,2013-09-06 20:15:00,
2013-09-06 16:20:00,63.2,51.2,30.15,WSW,238,0.0,5.0,65,0.00,,,0.00,Wunderground v.1.15,2013-09-06 20:20:00,
2013-09-06 16:30:00,63.2,51.6,30.16,ESE,108,1.0,1.0,66,0.00,,,0.00,Wunderground v.1.15,2013-09-06 20:30:00,
2013-09-06 16:35:00,63.1,50.3,30.15,SE,142,1.0,5.0,63,0.00,,,0.00,Wunderground v.1.15,2013-09-06 20:35:00,
2013-09-06 16:40:00,62.9,49.7,30.15,ESE,114,1.0,5.0,62,0.00,,,0.00,Wunderground v.1.15,2013-09-06 20:40:00,
2013-09-06 16:45:00,62.6,51.9,30.14,SE,124,1.0,5.0,68,0.00,,,0.00,Wunderground v.1.15,2013-09-06 20:45:00,
2013-09-06 16:55:00,62.3,51.6,30.14,SE,133,0.0,5.0,68,0.00,,,0.00,Wunderground v.1.15,2013-09-06 20:55:00,
2013-09-06 17:00:00,62.0,48.8,30.14,SSW,207,0.0,5.0,62,0.00,,,0.00,Wunderground v.1.15,2013-09-06 21:00:00,
2013-09-06 17:10:00,61.5,53.5,30.14,ESE,103,1.0,1.0,75,0.00,,,0.00,Wunderground v.1.15,2013-09-06 21:10:00,
2013-09-06 17:15:00,61.3,52.2,30.14,SW,223,0.0,3.0,72,0.00,,,0.00,Wunderground v.1.15,2013-09-06 21:15:00,
2013-09-06 17:20:00,61.0,52.7,30.14,SW,234,0.0,3.0,74,0.00,,,0.00,Wunderground v.1.15,2013-09-06 21:20:00,
2013-09-06 17:25:00,60.5,52.9,30.14,South,182,1.0,3.0,76,0.00,,,0.00,Wunderground v.1.15,2013-09-06 21:25:00,
2013-09-06 17:35:00,59.9,51.2,30.14,WSW,248,1.0,3.0,73,0.00,,,0.00,Wunderground v.1.15,2013-09-06 21:35:00,
2013-09-06 17:40:00,59.8,51.5,30.14,WSW,248,0.0,3.0,74,0.00,,,0.00,Wunderground v.1.15,2013-09-06 21:40:00,
2013-09-06 17:45:00,59.5,51.2,30.14,WSW,247,0.0,3.0,74,0.00,,,0.00,Wunderground v.1.15,2013-09-06 21:45:00,
2013-09-06 17:55:00,59.0,52.1,30.14,SW,221,0.0,3.0,78,0.00,,,0.00,Wunderground v.1.15,2013-09-06 21:55:00,
2013-09-06 18:00:00,58.9,52.1,30.14,SE,145,0.0,3.0,78,0.00,,,0.00,Wunderground v.1.15,2013-09-06 22:00:00,
2013-09-06 18:10:00,58.4,51.2,30.14,SE,145,0.0,3.0,77,0.00,,,0.00,Wunderground v.1.15,2013-09-06 22:10:00,
2013-09-06 18:15:00,58.1,51.3,30.14,SE,145,0.0,3.0,78,0.00,,,0.00,Wunderground v.1.15,2013-09-06 22:15:00,
2013-09-06 18:20:00,58.0,51.5,30.14,SE,145,0.0,3.0,79,0.00,,,0.00,Wunderground v.1.15,2013-09-06 22:20:00,
2013-09-06 18:30:00,57.5,52.0,30.14,SE,145,0.0,3.0,82,0.00,,,0.00,Wunderground v.1.15,2013-09-06 22:30:00,
2013-09-06 18:35:00,57.3,52.5,30.14,SE,145,0.0,3.0,84,0.00,,,0.00,Wunderground v.1.15,2013-09-06 22:35:00,
2013-09-06 18:40:00,57.2,53.0,30.13,SE,145,0.0,3.0,86,0.00,,,0.00,Wunderground v.1.15,2013-09-06 22:40:00,
2013-09-06 18:45:00,57.0,52.9,30.13,SE,145,0.0,3.0,86,0.00,,,0.00,Wunderground v.1.15,2013-09-06 22:45:00,
2013-09-06 18:55:00,56.6,51.5,30.13,SE,145,0.0,3.0,83,0.00,,,0.00,Wunderground v.1.15,2013-09-06 22:55:00,
2013-09-06 19:00:00,56.3,51.5,30.13,SE,145,0.0,3.0,84,0.00,,,0.00,Wunderground v.1.15,2013-09-06 23:00:00,
2013-09-06 19:10:00,55.6,50.8,30.13,SE,145,0.0,0.0,84,0.00,,,0.00,Wunderground v.1.15,2013-09-06 23:10:00,
2013-09-06 19:15:00,55.3,50.9,30.13,SE,145,0.0,0.0,85,0.00,,,0.00,Wunderground v.1.15,2013-09-06 23:15:00,
2013-09-06 19:20:00,55.0,50.6,30.13,SE,145,0.0,0.0,85,0.00,,,0.00,Wunderground v.1.15,2013-09-06 23:20:00,
2013-09-06 19:30:00,54.2,49.8,30.13,SE,145,0.0,0.0,85,0.00,,,0.00,Wunderground v.1.15,2013-09-06 23:30:00,
2013-09-06 19:35:00,53.9,49.8,30.14,SE,145,0.0,0.0,86,0.00,,,0.00,Wunderground v.1.15,2013-09-06 23:35:00,
2013-09-06 19:40:00,53.6,49.5,30.14,SE,145,0.0,0.0,86,0.00,,,0.00,Wunderground v.1.15,2013-09-06 23:40:00,
2013-09-06 19:45:00,53.3,49.5,30.14,SE,145,0.0,0.0,87,0.00,,,0.00,Wunderground v.1.15,2013-09-06 23:45:00,
2013-09-06 19:55:00,52.8,49.3,30.14,SE,145,0.0,0.0,88,0.00,,,0.00,Wunderground v.1.15,2013-09-06 23:55:00,
2013-09-06 20:00:00,52.5,49.0,30.14,SE,145,0.0,0.0,88,0.00,,,0.00,Wunderground v.1.15,2013-09-07 00:00:00,
2013-09-06 20:10:00,51.9,48.5,30.14,SE,145,0.0,0.0,88,0.00,,,0.00,Wunderground v.1.15,2013-09-07 00:10:00,
2013-09-06 20:15:00,51.6,48.5,30.14,SE,145,0.0,0.0,89,0.00,,,0.00,Wunderground v.1.15,2013-09-07 00:15:00,
2013-09-06 20:20:00,51.4,48.3,30.14,SE,145,0.0,0.0,89,0.00,,,0.00,Wunderground v.1.15,2013-09-07 00:20:00,
2013-09-06 20:25:00,51.1,48.0,30.14,SE,145,0.0,0.0,89,0.00,,,0.00,Wunderground v.1.15,2013-09-07 00:25:00,
2013-09-06 20:35:00,50.7,47.6,30.14,SE,145,0.0,0.0,89,0.00,,,0.00,Wunderground v.1.15,2013-09-07 00:35:00,
2013-09-06 20:40:00,50.4,47.3,30.14,SE,145,0.0,0.0,89,0.00,,,0.00,Wunderground v.1.15,2013-09-07 00:40:00,
2013-09-06 20:50:00,49.9,47.1,30.14,SE,145,0.0,0.0,90,0.00,,,0.00,Wunderground v.1.15,2013-09-07 00:50:00,
2013-09-06 20:55:00,49.8,47.3,30.14,SE,145,0.0,0.0,91,0.00,,,0.00,Wunderground v.1.15,2013-09-07 00:55:00,
2013-09-06 21:00:00,49.6,47.4,30.14,SE,145,0.0,0.0,92,0.00,,,0.00,Wunderground v.1.15,2013-09-07 01:00:00,
2013-09-06 21:10:00,49.2,47.0,30.14,SE,145,0.0,0.0,92,0.00,,,0.00,Wunderground v.1.15,2013-09-07 01:10:00,
2013-09-06 21:15:00,49.1,46.9,30.14,SE,145,0.0,0.0,92,0.00,,,0.00,Wunderground v.1.15,2013-09-07 01:15:00,
2013-09-06 21:25:00,48.8,46.9,30.14,SE,145,0.0,0.0,93,0.00,,,0.00,Wunderground v.1.15,2013-09-07 01:25:00,
2013-09-06 21:30:00,48.6,46.7,30.13,SE,145,0.0,0.0,93,0.00,,,0.00,Wunderground v.1.15,2013-09-07 01:30:00,
2013-09-06 21:40:00,48.2,46.3,30.13,SE,145,0.0,0.0,93,0.00,,,0.00,Wunderground v.1.15,2013-09-07 01:40:00,
2013-09-06 21:45:00,48.0,46.1,30.13,SE,145,0.0,0.0,93,0.00,,,0.00,Wunderground v.1.15,2013-09-07 01:45:00,
2013-09-06 21:50:00,47.9,46.3,30.13,SE,145,0.0,0.0,94,0.00,,,0.00,Wunderground v.1.15,2013-09-07 01:50:00,
2013-09-06 22:00:00,47.6,46.0,30.13,SE,145,0.0,0.0,94,0.00,,,0.00,Wunderground v.1.15,2013-09-07 02:00:00,
2013-09-06 22:05:00,47.4,45.8,30.13,SE,145,0.0,0.0,94,0.00,,,0.00,Wunderground v.1.15,2013-09-07 02:05:00,
2013-09-06 22:15:00,47.3,45.7,30.13,SE,145,0.0,0.0,94,0.00,,,0.00,Wunderground v.1.15,2013-09-07 02:15:00,
2013-09-06 22:20:00,47.1,45.5,30.13,SE,145,0.0,0.0,94,0.00,,,0.00,Wunderground v.1.15,2013-09-07 02:20:00,
2013-09-06 22:25:00,47.0,45.4,30.13,SE,145,0.0,0.0,94,0.00,,,0.00,Wunderground v.1.15,2013-09-07 02:25:00,
2013-09-06 22:30:00,46.8,45.2,30.13,SE,145,0.0,0.0,94,0.00,,,0.00,Wunderground v.1.15,2013-09-07 02:30:00,
2013-09-06 22:40:00,46.7,45.1,30.13,SE,145,0.0,0.0,94,0.00,,,0.00,Wunderground v.1.15,2013-09-07 02:40:00,
2013-09-06 22:45:00,46.5,45.1,30.13,SE,145,0.0,0.0,95,0.00,,,0.00,Wunderground v.1.15,2013-09-07 02:45:00,
2013-09-06 22:50:00,46.5,45.1,30.13,SE,145,0.0,0.0,95,0.00,,,0.00,Wunderground v.1.15,2013-09-07 02:50:00,
2013-09-06 23:00:00,46.2,44.8,30.13,SE,145,0.0,0.0,95,0.00,,,0.00,Wunderground v.1.15,2013-09-07 03:00:00,
2013-09-06 23:05:00,46.2,44.8,30.14,SE,145,0.0,0.0,95,0.00,,,0.00,Wunderground v.1.15,2013-09-07 03:05:00,
2013-09-06 23:15:00,46.0,44.6,30.13,SE,145,0.0,0.0,95,0.00,,,0.00,Wunderground v.1.15,2013-09-07 03:15:00,
2013-09-06 23:20:00,46.0,44.9,30.13,SE,145,0.0,0.0,96,0.00,,,0.00,Wunderground v.1.15,2013-09-07 03:20:00,
2013-09-06 23:25:00,45.8,44.7,30.13,SE,145,0.0,0.0,96,0.00,,,0.00,Wunderground v.1.15,2013-09-07 03:25:00,
2013-09-06 23:30:00,45.8,44.7,30.12,SE,145,0.0,0.0,96,0.00,,,0.00,Wunderground v.1.15,2013-09-07 03:30:00,
2013-09-06 23:40:00,45.5,44.4,30.12,SE,145,0.0,0.0,96,0.00,,,0.00,Wunderground v.1.15,2013-09-07 03:40:00,
2013-09-06 23:45:00,45.5,44.4,30.13,SE,145,0.0,0.0,96,0.00,,,0.00,Wunderground v.1.15,2013-09-07 03:45:00,
2013-09-06 23:50:00,45.4,44.3,30.13,SE,145,0.0,0.0,96,0.00,,,0.00,Wunderground v.1.15,2013-09-07 03:50:00,